Show Low, AZ

2:23 PM MST on December 18, 2017 (GMT -0700)
Show Low Municipal

Weather History for KSOW - October, 2012

Change the Weather History Date:

Sunday, October 28, 2012

  Actual Average Record
Temperature  
Mean Temperature 47 °F -  
Max Temperature 68 °F 58 °F 116 °F (2000)
Min Temperature 26 °F 37 °F 19 °F (1970)
Degree Days  
Heating Degree Days 18    
Moisture  
Dew Point 5 °F    
Average Humidity 21    
Maximum Humidity 37    
Minimum Humidity 9    
Precipitation  
Precipitation 0.00 in - - ()
Sea Level Pressure  
Sea Level Pressure 30.26 in    
Wind  
Wind Speed 1 mph (SSW)    
Max Wind Speed 9 mph    
Max Gust Speed -    
Visibility 9 miles    
Events      
Averages and records for this station are not official NWS values.
T = Trace of Precipitation, MM = Missing Value Source: NWS Daily Summary

Daily Weather History Graph

Daily Weather History Graph

Search for Another Location

Airport or City:

Trip Planner

Search our weather history database for the weather conditions in past years. The results will help you decide how hot, cold, wet, or windy it might be!

Date:

Astronomy

Oct. 28, 2012 Rise Set
Actual Time 6:36 AM MST 5:30 PM MST
Civil Twilight 6:11 AM MST 5:55 PM MST
Nautical Twilight 5:41 AM MST 6:25 PM MST
Astronomical Twilight 5:12 AM MST 6:54 PM MST
Moon 4:49 PM MST (10/28) 5:34 AM MST (10/28)
Length of Visible Light 11h 44m
Length of Day
10h 53m
Waxing Gibbous, 99% of the Moon is Illuminated
Oct 28
Waxing Gibbous
Oct 29
Full
Nov 6
Last Quarter
Nov 13
New
Nov 20
First Quarter

Hourly Weather History & Observations

Time (MST) Temp. Windchill Dew Point Humidity Pressure Visibility Wind Dir Wind Speed Gust Speed Precip Events Conditions
12:15 AM 32.0 °F - 3.2 °F 30% 30.25 in 10.0 mi Calm Calm - N/A   Clear
12:35 AM 35.6 °F - 1.4 °F 24% 30.25 in 9.0 mi Calm Calm - N/A   Clear
12:55 AM 35.6 °F - 1.4 °F 24% 30.25 in 9.0 mi Calm Calm - N/A   Clear
1:15 AM 32.0 °F - 5.0 °F 32% 30.25 in 8.0 mi Calm Calm - N/A   Clear
1:35 AM 32.0 °F - 5.0 °F 32% 30.25 in 8.0 mi Calm Calm - N/A   Clear
1:55 AM 33.8 °F - 3.2 °F 28% 30.25 in 7.0 mi Calm Calm - N/A   Clear
2:15 AM 32.0 °F - 1.4 °F 27% 30.24 in 7.0 mi Calm Calm - N/A   Clear
2:35 AM 32.0 °F - 1.4 °F 27% 30.25 in 7.0 mi Calm Calm - N/A   Clear
2:55 AM 30.2 °F - 3.2 °F 32% 30.25 in 7.0 mi Calm Calm - N/A   Clear
3:15 AM 32.0 °F - 1.4 °F 27% 30.25 in 8.0 mi Calm Calm - N/A   Clear
3:35 AM 26.6 °F - 1.4 °F 34% 30.24 in 9.0 mi Calm Calm - N/A   Clear
3:55 AM 26.6 °F - 1.4 °F 34% 30.25 in 9.0 mi Calm Calm - N/A   Clear
4:15 AM 26.6 °F - 1.4 °F 34% 30.25 in 10.0 mi Calm Calm - N/A   Clear
4:35 AM 28.4 °F - 1.4 °F 31% 30.25 in 10.0 mi Calm Calm - N/A   Clear
4:55 AM 28.4 °F - 1.4 °F 31% 30.25 in 10.0 mi Calm Calm - N/A   Clear
5:15 AM 26.6 °F - 1.4 °F 34% 30.25 in 10.0 mi Calm Calm - N/A   Clear
5:35 AM 26.6 °F 22.6 °F 1.4 °F 34% 30.25 in 10.0 mi South 3.5 mph - N/A   Clear
5:55 AM 28.4 °F - 1.4 °F 31% 30.25 in 10.0 mi Calm Calm - N/A   Clear
6:15 AM 26.6 °F - 3.2 °F 37% 30.25 in 7.0 mi Calm Calm - N/A   Clear
6:35 AM 26.6 °F - 1.4 °F 34% 30.25 in 8.0 mi Calm Calm - N/A   Clear
6:55 AM 28.4 °F - 1.4 °F 31% 30.26 in 7.0 mi Calm Calm - N/A   Clear
7:15 AM 32.0 °F - 3.2 °F 30% 30.27 in 8.0 mi Calm Calm - N/A   Clear
7:35 AM 32.0 °F - 3.2 °F 30% 30.27 in 8.0 mi Calm Calm - N/A   Clear
7:55 AM 37.4 °F - 5.0 °F 26% 30.28 in 8.0 mi Calm Calm - N/A   Clear
8:15 AM 41.0 °F - 3.2 °F 21% 30.28 in 8.0 mi Calm Calm - N/A   Clear
8:35 AM 44.6 °F - 1.4 °F 17% 30.28 in 9.0 mi Calm Calm - N/A   Clear
8:55 AM 46.4 °F - 1.4 °F 16% 30.29 in 9.0 mi Calm Calm - N/A   Clear
9:15 AM 48.2 °F - 3.2 °F 16% 30.29 in 9.0 mi Calm Calm - N/A   Clear
9:35 AM 50.0 °F - 5.0 °F 16% 30.29 in 9.0 mi Calm Calm - N/A   Clear
9:55 AM 53.6 °F - 5.0 °F 14% 30.29 in 9.0 mi Calm Calm - N/A   Clear
10:15 AM 55.4 °F - 5.0 °F 13% 30.28 in 9.0 mi Calm Calm - N/A   Clear
10:35 AM 57.2 °F - 6.8 °F 13% 30.28 in 9.0 mi Calm Calm - N/A   Clear
10:55 AM 59.0 °F - 6.8 °F 13% 30.28 in 9.0 mi Calm Calm - N/A   Clear
11:15 AM 62.6 °F - 6.8 °F 11% 30.28 in 9.0 mi NE 3.5 mph - N/A   Clear
11:35 AM 62.6 °F - 6.8 °F 11% 30.27 in 10.0 mi Calm Calm - N/A   Clear
11:55 AM 64.4 °F - 6.8 °F 10% 30.26 in 10.0 mi North 3.5 mph - N/A   Clear
12:15 PM 64.4 °F - 6.8 °F 10% 30.25 in 10.0 mi East 4.6 mph - N/A   Clear
12:35 PM 64.4 °F - 6.8 °F 10% 30.24 in 10.0 mi North 5.8 mph - N/A   Clear
12:55 PM 64.4 °F - 6.8 °F 10% 30.24 in 10.0 mi West 3.5 mph - N/A   Clear
1:15 PM 66.2 °F - 6.8 °F 10% 30.23 in 10.0 mi NNE 5.8 mph - N/A   Clear
1:35 PM 66.2 °F - 6.8 °F 10% 30.22 in 10.0 mi Calm Calm - N/A   Clear
1:55 PM 66.2 °F - 6.8 °F 10% 30.21 in 10.0 mi NNW 5.8 mph - N/A   Clear
2:15 PM 68.0 °F - 6.8 °F 9% 30.21 in 10.0 mi Calm Calm - N/A   Clear
2:35 PM 68.0 °F - 6.8 °F 9% 30.21 in 9.0 mi Calm Calm - N/A   Clear
2:55 PM 68.0 °F - 6.8 °F 9% 30.21 in 10.0 mi Calm Calm - N/A   Clear
3:15 PM 68.0 °F - 6.8 °F 9% 30.20 in 10.0 mi Calm Calm - N/A   Clear
3:35 PM 68.0 °F - 6.8 °F 9% 30.21 in 10.0 mi WNW 3.5 mph - N/A   Clear
3:55 PM 68.0 °F - 6.8 °F 9% 30.20 in 10.0 mi WNW 4.6 mph - N/A   Clear
4:15 PM 66.2 °F - 6.8 °F 10% 30.21 in 10.0 mi NNW 9.2 mph - N/A   Clear
4:35 PM 66.2 °F - 6.8 °F 10% 30.22 in 10.0 mi North 6.9 mph - N/A   Clear
4:55 PM 64.4 °F - 6.8 °F 10% 30.22 in 10.0 mi NNW 6.9 mph - N/A   Clear
5:15 PM 62.6 °F - 6.8 °F 11% 30.23 in 10.0 mi North 4.6 mph - N/A   Clear
5:35 PM 59.0 °F - 6.8 °F 13% 30.23 in 10.0 mi Calm Calm - N/A   Clear
5:55 PM 59.0 °F - 6.8 °F 13% 30.23 in 10.0 mi Calm Calm - N/A   Clear
6:15 PM 55.4 °F - 6.8 °F 14% 30.24 in 10.0 mi Calm Calm - N/A   Clear
6:35 PM 48.2 °F - 6.8 °F 19% 30.24 in 10.0 mi Calm Calm - N/A   Clear
6:55 PM 48.2 °F - 6.8 °F 19% 30.25 in 10.0 mi Calm Calm - N/A   Clear
7:15 PM 44.6 °F 43.1 °F 6.8 °F 21% 30.25 in 10.0 mi South 3.5 mph - N/A   Clear
7:35 PM 46.4 °F 45.2 °F 6.8 °F 20% 30.26 in 10.0 mi SSW 3.5 mph - N/A   Clear
7:55 PM 44.6 °F - 6.8 °F 21% 30.27 in 10.0 mi Calm Calm - N/A   Clear
8:15 PM 44.6 °F - 6.8 °F 21% 30.28 in 10.0 mi Calm Calm - N/A   Clear
8:35 PM 41.0 °F 38.0 °F 6.8 °F 24% 30.28 in 10.0 mi South 4.6 mph - N/A   Clear
8:55 PM 41.0 °F 37.1 °F 6.8 °F 24% 30.28 in 10.0 mi South 5.8 mph - N/A   Clear
9:15 PM 41.0 °F 37.1 °F 6.8 °F 24% 30.29 in 10.0 mi South 5.8 mph - N/A   Clear
9:35 PM 39.2 °F 37.0 °F 6.8 °F 26% 30.29 in 10.0 mi SSE 3.5 mph - N/A   Clear
9:55 PM 41.0 °F 36.4 °F 6.8 °F 24% 30.29 in 10.0 mi South 6.9 mph - N/A   Clear
10:15 PM 41.0 °F - 6.8 °F 24% 30.29 in 10.0 mi Calm Calm - N/A   Clear
10:35 PM 39.2 °F 37.0 °F 8.6 °F 28% 30.29 in 10.0 mi South 3.5 mph - N/A   Clear
10:55 PM 39.2 °F - 8.6 °F 28% 30.30 in 8.0 mi Calm Calm - N/A   Clear
11:15 PM 39.2 °F 37.0 °F 8.6 °F 28% 30.30 in 10.0 mi South 3.5 mph - N/A   Clear
11:35 PM 37.4 °F 33.8 °F 8.6 °F 30% 30.30 in 10.0 mi South 4.6 mph - N/A   Clear
11:55 PM 39.2 °F - 8.6 °F 28% 30.30 in 10.0 mi Calm Calm - N/A   Clear